This is the latest recevied weather packets stored in our database for station/object JF7BTK-10. If no packets are shown the sender has not sent any weather packets the latest 10 day(s).
| Time | Temp. | Humidity | Pressure | Rain* | Wind** | Luminosity | Snow |
|---|---|---|---|---|---|---|---|
| 1788370089 | 22.22° C | 99% | 1005.3 hPa | 0.25 mm | - | - | - |
| 1788369189 | 22.22° C | 99% | 1005.2 hPa | 0 mm | - | - | - |
| 1788369052 | 22.22° C | 99% | 1005.3 hPa | 0 mm | - | - | - |
| 1788368289 | 22.22° C | 99% | 1005.4 hPa | 0 mm | - | - | - |
| 1788367389 | 22.22° C | 99% | 1005.2 hPa | 0 mm | - | - | - |
| 1788366488 | 22.22° C | 99% | 1005.2 hPa | 0 mm | - | - | - |
| 1788365589 | 22.22° C | 99% | 1005 hPa | 0 mm | - | - | - |
| 1788364689 | 22.22° C | 99% | 1005.4 hPa | 2.03 mm | - | - | - |
| 1788363788 | 22.22° C | 99% | 1005.4 hPa | 6.86 mm | - | - | - |
| 1788362888 | 21.67° C | 99% | 1005.2 hPa | 14.48 mm | - | - | - |
| 1788361989 | 21.67° C | 99% | 1005.4 hPa | 26.16 mm | - | - | - |
| 1788361089 | 21.67° C | 99% | 1005.5 hPa | 27.69 mm | - | - | - |
| 1788360190 | 22.22° C | 99% | 1005.4 hPa | 22.86 mm | - | - | - |
| 1788359289 | 22.22° C | 99% | 1005.9 hPa | 15.49 mm | - | - | - |
| 1788358388 | 22.22° C | 99% | 1006.5 hPa | 3.05 mm | - | - | - |
| 1788357489 | 22.22° C | 99% | 1005.8 hPa | 0 mm | - | - | - |
| 1788356586 | 22.78° C | 99% | 1006.1 hPa | 0 mm | - | - | - |
| 1788355685 | 22.78° C | 99% | 1006.1 hPa | 0 mm | - | - | - |
| 1788354786 | 22.78° C | 99% | 1006.3 hPa | 2.54 mm | - | - | - |
| 1788353886 | 22.78° C | 99% | 1006.4 hPa | 5.84 mm | - | - | - |
| 1788352986 | 22.78° C | 99% | 1006.3 hPa | 6.1 mm | - | - | - |
| 1788352087 | 22.78° C | 99% | 1006.4 hPa | 6.1 mm | - | - | - |
| 1788351187 | 22.78° C | 99% | 1006.8 hPa | 3.05 mm | - | - | - |
| 1788350286 | 22.78° C | 99% | 1006.3 hPa | 0.25 mm | - | - | - |
| 1788349386 | 23.33° C | 99% | 1006.4 hPa | 0 mm | - | - | - |
* Rain latest hour (hover to see other rain measurements)
** Current wind speed in m/s (hover to see current wind gust speed)